Regional Weather Roundup
Issued by NWS Sioux Falls, SD

Home | Current Version | Previous Version | Text Only | Print | Product List | Glossary On
Versions: 1 2 3 4 5 6 7 8 9 10 11 12 13 14 15 16 17 18 19 20 21 22 23 24 25 26 27 28 29 30 31 32 33 34 35 36 37 38 39 40 41 42 43 44 45 46 47 48 49 50
000
ASUS43 KFSD 301510
RWRFSD

WEATHER ROUNDUP FOR SE SOUTH DAKOTA/SW MINNESOTA/NW IOWA
NATIONAL WEATHER SERVICE SIOUX FALLS SD
1000 AM CDT SUN AUG 30 2015

NOTE: "FAIR" INDICATES FEW OR NO CLOUDS BELOW 12,000 FEET WITH NO
SIGNIFICANT WEATHER AND OR OBSTRUCTIONS TO VISIBILITY.


SDZ038>040-050-052>070-301600-
SOUTHEAST SOUTH DAKOTA

CITY           SKY/WX    TMP DP  RH WIND       PRES   REMARKS
BROOKINGS      CLOUDY    64  61  88 S13       29.98S
CHAMBERLAIN    SUNNY     73  61  65 S5        29.88S
HURON          SUNNY     67  63  87 S14       29.89S
MADISON        CLOUDY    61  61 100 S15       29.97F
MITCHELL       SUNNY     69  65  86 S13       29.93S
SIOUX FALLS    CLOUDY    64  62  93 S12       29.99S
WINNER         FAIR      75  55  49 S18       29.89S
YANKTON        PTSUNNY   66  64  94 SE12      29.97F
$$

MNZ071-072-080-081-089-090-097-098-301600-
SOUTHWEST MINNESOTA

CITY           SKY/WX    TMP DP  RH WIND       PRES   REMARKS
FAIRMONT       CLOUDY    63  55  77 SW9       30.03S
JACKSON        PTSUNNY   64  61  88 SW8       30.04R
LUVERNE        CLOUDY    63  61  94 S9        30.01F FOG
MARSHALL       SUNNY     66  59  77 S16       29.96F
MONTEVIDEO     SUNNY     68  64  88 SW9       29.95F
PIPESTONE      CLOUDY    63  63 100 SW9       29.99F FOG
REDWOOD FALLS  MOSUNNY   67  61  81 S14       29.97F
TRACY          PTSUNNY   66  62  87 S12G17    29.98S FOG
WINDOM         MOSUNNY   66  61  82 S10       30.01F
WORTHINGTON    PTSUNNY   63  57  82 S12       30.01F
$$

IAZ001>003-012>014-020>022-031-032-NEZ013-014-SDZ071-301600-
NORTHWEST IOWA

CITY           SKY/WX    TMP DP  RH WIND       PRES   REMARKS
CHEROKEE       CLOUDY    64  64  97 S8        30.04R FOG
DENISON        CLOUDY    64  63  94 S8G14     30.04R
ESTHERVILLE    CLOUDY    63  60  90 SW7       30.04R
LE MARS        CLOUDY    63  63 100 S10       30.03S FOG
ORANGE CITY    CLOUDY    63  63 100 S8        30.02F FOG
SHELDON        CLOUDY    64  61  88 S8        30.01F
SIOUX CITY     NOT AVBL
SPENCER        HAZE      66  60  81 SW7       30.04R VSB 3/4
STORM LAKE     CLOUDY    64  63  94 SW9       30.05S
$$

ABBREVIATIONS USED IN REMARKS
   TC - TEMPERATURE IN CELSIUS
  WCI - WIND CHILL INDEX
   HX - HEAT INDEX
  VSB - VISIBILITY



USA.gov is the U.S. government's official web portal to all federal, state and local government web resources and services.